[Iaude] MPEC J07: 2024 HO2 [a=0.73,e=0.40,i=9.2,H=29.5]

mpec at cfa.harvard.edu mpec at cfa.harvard.edu
Wed May 1 06:50:27 EDT 2024


M.P.E.C. 2024-J07                                   Issued 2024 May 1, 10:48 UT

     The Minor Planet Electronic Circulars contain information on unusual
         minor planets, routine data on comets and natural satellites,
         and occasional editorial announcements.  They are published
    on behalf of Division F of the International Astronomical Union by the
          Minor Planet Center, Smithsonian Astrophysical Observatory,
                          Cambridge, MA 02138, U.S.A.
			  
             Prepared using the Tamkin Foundation Computer Network

                              MPC at CFA.HARVARD.EDU
            URL https://www.minorplanetcenter.net/    ISSN 1523-6714

                                    2024 HO2                                    


Observations:
     K24H02O*1C2024 04 30.21222610 01 21.569-10 40 18.23         18.89GVEJ007703
     K24H02O 1C2024 04 30.21450710 01 24.935-10 39 37.62               VEJ007703
     K24H02O 1C2024 04 30.21678810 01 28.445-10 38 57.41         19.65GVEJ007703
     K24H02O 1C2024 04 30.21907210 01 31.937-10 38 15.61         19.07GVEJ007703
     K24H02O mC2024 04 30.22930310 01 47.532-10 35 16.01         18.66GVEJ007I52
     K24H02O mC2024 04 30.22949710 01 47.820-10 35 12.52         18.70GVEJ007I52
     K24H02O mC2024 04 30.22969010 01 48.112-10 35 08.95         18.68GVEJ007I52
     K24H02O mC2024 04 30.22988310 01 48.392-10 35 05.68         18.47GVEJ007I52
     K24H02O mC2024 04 30.26245510 02 37.284-10 25 58.58         18.94GVEJ007I52
     K24H02O mC2024 04 30.26265110 02 37.601-10 25 55.42         18.65GVEJ007I52
     K24H02O mC2024 04 30.26284410 02 37.885-10 25 52.28         18.78GVEJ007I52
     K24H02O mC2024 04 30.26303710 02 38.180-10 25 49.48         18.72GVEJ007I52
     K24H02O KC2024 05 01.13279510 16 43.039-09 00 42.52         20.39GVEJ007I52
     K24H02O KC2024 05 01.13470310 16 42.899-09 00 37.62         20.65GVEJ007I52
     K24H02O KC2024 05 01.14266110 16 42.071-09 00 16.67         21.21GVEJ007I52
     K24H02O KC2024 05 01.15070410 16 41.344-08 59 55.21         20.71GVEJ007I52
     K24H02O  C2024 05 01.27350310 17 21.564-08 51 57.76         21.11wXEJ007F52
     K24H02O  C2024 05 01.28608010 17 19.703-08 51 30.05         21.13wXEJ007F52
     K24H02O  C2024 05 01.29863310 17 17.955-08 51 01.71         21.29wXEJ007F52

Observer details:
703 Catalina Sky Survey.  Observer H. Groeller.  Measurers T. Beuden, V. F.
    Carvajal, D. Fay, J. B. Fazekas, D. C. Fuls, A. R. Gibbs, A. D. Grauer, H.
    Groeller, J. K. Hogan, R. A. Kowalski, S. M. Larson, G. J. Leonard, D.
    Rankin, R. L. Seaman, F. C. Shelly, K. W. Wierzchos.  0.68-m Schmidt + 10K
    CCD.
F52 Pan-STARRS 2, Haleakala.  Observers J. Herman, T. Lowe, P. Minguez, A.
    Schultz, I. Smith.  Measurers K. Chambers, T. de Boer, J. Fairlamb, H.
    Gao, M. Huber, C.-C. Lin, E. Magnier, Y. Ramanjooloo, R. Wainscoat, R.
    Weryk.  1.8-m Ritchey-Chretien + CCD.
I52 Steward Observatory, Mt. Lemmon Station.  Observers V. F. Carvajal, G. J.
    Leonard.  Measurers T. Beuden, V. F. Carvajal, D. Fay, J. B. Fazekas, D.
    C. Fuls, A. R. Gibbs, A. D. Grauer, H. Groeller, J. K. Hogan, R. A.
    Kowalski, S. M. Larson, G. J. Leonard, D. Rankin, R. L. Seaman, F. C.
    Shelly, K. W. Wierzchos.  1.0-m prime focus + CCD.

Orbital elements:
2024 HO2                                                 Earth MOID = 0.0004 AU
Epoch 2024 Mar. 31.0 TT = JDT 2460400.5                 Veres                   
M 111.12472              (2000.0)            P               Q                  
n   1.58961513     Peri.   10.26732     +0.64789523     -0.75495495             
a   0.7271233      Node    39.45857     +0.68707770     +0.52174941             
e   0.3994812      Incl.    9.17781     +0.32887080     +0.39726638             
P   0.62           H   29.52          G   0.15           U   7                  
Residuals in seconds of arc
240430 703  0.9+  2.1+    240430 I52  0.2-  0.1+    240501 I52  0.3-  0.0
240430 703  0.6-  1.1+    240430 I52  0.3-  0.1+    240501 I52  0.1-  0.0
240430 703  0.0   0.1-    240430 I52  0.1+  0.1+    240501 F52  0.3-  0.1-
240430 703  0.4+  0.5+    240430 I52  0.0   0.1+    240501 F52  0.1-  0.1-
240430 I52  0.0   0.1-    240430 I52  0.1+  0.2-    240501 F52  0.1-  0.1-
240430 I52  0.0   0.0     240501 I52  0.0   0.2+
240430 I52  0.0   0.2+    240501 I52  0.7+  0.0

Ephemeris:
2024 HO2                 a,e,i = 0.73, 0.40, 9                   q = 0.4367
Date    TT    R. A. (2000) Decl.     Delta      r    Elong.  Phase     V
2024 04 01    21 35 49.0 +13 44 19   0.1309  0.9146    46.8   127.2    30.4
...
2024 04 16    21 26 28.5 +13 39 41   0.06290 0.9748    61.2   115.5    28.0
...
2024 04 24    21 25 46.6 +13 28 34   0.02619 0.9962    68.2   110.4    25.8
...
2024 04 30    09 50 15.3 -11 16 03   0.0017611.0079   112.1    67.8    18.2
2024 05 01    10 15 54.1 -08 51 56   0.0064191.0105   116.9    62.8    20.8
2024 05 02    10 19 59.3 -08 28 12   0.01106 1.0129   116.9    62.5    22.0
...
2024 05 08    10 24 49.9 -08 06 22   0.03883 1.0248   112.5    65.5    24.8
...
2024 05 16    10 28 02.1 -08 11 39   0.07547 1.0343   105.9    70.1    26.4
...
2024 05 31    10 34 28.7 -08 38 51   0.1409  1.0327    93.7    78.4    28.1

M. P. C. Staff               (C) Copyright 2024 MPC           M.P.E.C. 2024-J07





More information about the Iaude mailing list